TimeMST,TemperatureF,Dew PointF,Humidity,Sea Level PressureIn,VisibilityMPH,Wind Direction,Wind SpeedMPH,Gust SpeedMPH,PrecipitationIn,Events,Conditions,WindDirDegrees,DateUTC
12:15 AM,41.0,26.6,57,30.12,10.0,SSE,10.4,-,N/A,,Clear,160,2012-12-04 07:15:00
12:35 AM,42.8,26.6,53,30.11,10.0,SSE,12.7,-,N/A,,Scattered Clouds,150,2012-12-04 07:35:00
12:55 AM,42.8,26.6,53,30.10,10.0,SSE,15.0,-,N/A,,Mostly Cloudy,160,2012-12-04 07:55:00
1:55 AM,44.6,26.6,49,30.08,10.0,SSE,16.1,21.9,N/A,,Overcast,160,2012-12-04 08:55:00
2:15 AM,44.6,24.8,46,30.09,10.0,SSE,17.3,-,N/A,,Overcast,160,2012-12-04 09:15:00
2:35 AM,44.6,24.8,46,30.09,10.0,South,20.7,28.8,N/A,,Overcast,170,2012-12-04 09:35:00
2:55 AM,44.6,26.6,49,30.10,10.0,South,17.3,-,N/A,,Overcast,170,2012-12-04 09:55:00
3:15 AM,44.6,28.4,53,30.08,10.0,SE,18.4,26.5,N/A,,Overcast,130,2012-12-04 10:15:00
3:35 AM,44.6,30.2,57,30.09,10.0,SE,17.3,-,N/A,,Overcast,140,2012-12-04 10:35:00
3:55 AM,44.6,30.2,57,30.11,10.0,SSE,15.0,19.6,N/A,,Overcast,150,2012-12-04 10:55:00
4:15 AM,42.8,30.2,61,30.10,10.0,SE,13.8,-,0.02,,Overcast,140,2012-12-04 11:15:00
4:35 AM,42.8,30.2,61,30.11,10.0,SSE,10.4,-,0.04,,Overcast,150,2012-12-04 11:35:00
4:55 AM,41.0,32.0,70,30.11,10.0,SE,8.1,-,0.07,,Overcast,140,2012-12-04 11:55:00
5:15 AM,41.0,32.0,70,30.12,10.0,SSE,6.9,-,0.02,,Overcast,160,2012-12-04 12:15:00
5:35 AM,41.0,33.8,76,30.11,10.0,SE,9.2,-,0.03,,Overcast,130,2012-12-04 12:35:00
5:55 AM,42.8,33.8,70,30.09,10.0,ESE,17.3,-,0.03,,Overcast,120,2012-12-04 12:55:00
6:15 AM,42.8,33.8,70,30.09,10.0,SE,18.4,26.5,N/A,,Overcast,130,2012-12-04 13:15:00
6:35 AM,42.8,33.8,70,30.08,10.0,SE,21.9,26.5,N/A,,Overcast,140,2012-12-04 13:35:00
6:55 AM,42.8,33.8,70,30.09,10.0,SE,16.1,27.6,N/A,,Overcast,140,2012-12-04 13:55:00
7:15 AM,44.6,33.8,66,30.11,10.0,SE,17.3,25.3,N/A,,Overcast,140,2012-12-04 14:15:00
7:35 AM,44.6,33.8,66,30.11,10.0,SSE,21.9,27.6,N/A,,Overcast,150,2012-12-04 14:35:00
7:55 AM,44.6,33.8,66,30.11,10.0,SSE,18.4,26.5,N/A,,Overcast,160,2012-12-04 14:55:00
8:15 AM,44.6,33.8,66,30.10,10.0,SSE,21.9,31.1,N/A,,Overcast,150,2012-12-04 15:15:00
8:35 AM,44.6,33.8,66,30.11,10.0,South,15.0,19.6,N/A,,Overcast,170,2012-12-04 15:35:00
8:55 AM,44.6,33.8,66,30.10,10.0,SSE,19.6,25.3,N/A,,Overcast,150,2012-12-04 15:55:00
9:15 AM,44.6,33.8,66,30.10,10.0,SSE,20.7,24.2,N/A,,Overcast,160,2012-12-04 16:15:00
9:35 AM,44.6,33.8,66,30.11,10.0,SSE,17.3,24.2,N/A,,Overcast,160,2012-12-04 16:35:00
9:55 AM,44.6,33.8,66,30.10,10.0,SSE,20.7,27.6,N/A,,Overcast,160,2012-12-04 16:55:00
10:15 AM,44.6,33.8,66,30.10,10.0,SSE,20.7,28.8,N/A,,Mostly Cloudy,150,2012-12-04 17:15:00
10:35 AM,46.4,33.8,62,30.10,10.0,SSE,23.0,29.9,N/A,,Mostly Cloudy,150,2012-12-04 17:35:00
11:15 AM,46.4,35.6,66,30.10,10.0,SE,18.4,25.3,N/A,,Overcast,140,2012-12-04 18:15:00
11:35 AM,48.2,35.6,62,30.09,10.0,SSE,18.4,26.5,N/A,,Mostly Cloudy,150,2012-12-04 18:35:00
11:55 AM,48.2,35.6,62,30.08,10.0,SSE,24.2,32.2,N/A,,Mostly Cloudy,150,2012-12-04 18:55:00
12:15 PM,48.2,35.6,62,30.07,10.0,SSE,23.0,33.4,N/A,,Mostly Cloudy,150,2012-12-04 19:15:00
12:35 PM,48.2,35.6,62,30.07,10.0,SSE,23.0,32.2,N/A,,Partly Cloudy,150,2012-12-04 19:35:00
12:55 PM,48.2,35.6,62,30.06,10.0,SE,25.3,31.1,N/A,,Mostly Cloudy,140,2012-12-04 19:55:00
1:15 PM,50.0,35.6,58,30.06,10.0,SSE,23.0,28.8,N/A,,Mostly Cloudy,150,2012-12-04 20:15:00
1:35 PM,50.0,35.6,58,30.05,10.0,SSE,20.7,32.2,N/A,,Overcast,150,2012-12-04 20:35:00
1:55 PM,50.0,35.6,58,30.05,10.0,SE,21.9,27.6,N/A,,Scattered Clouds,140,2012-12-04 20:55:00
2:15 PM,51.8,35.6,54,30.04,10.0,SSE,20.7,28.8,N/A,,Partly Cloudy,150,2012-12-04 21:15:00
2:35 PM,51.8,35.6,54,30.03,10.0,SE,19.6,-,N/A,,Mostly Cloudy,140,2012-12-04 21:35:00
2:55 PM,51.8,37.4,58,30.03,10.0,SSE,21.9,25.3,N/A,,Partly Cloudy,150,2012-12-04 21:55:00
3:15 PM,51.8,35.6,54,30.03,10.0,SSE,21.9,-,N/A,,Mostly Cloudy,150,2012-12-04 22:15:00
3:35 PM,51.8,35.6,54,30.03,10.0,SSE,21.9,29.9,N/A,,Overcast,150,2012-12-04 22:35:00
3:55 PM,50.0,37.4,62,30.04,10.0,SSE,21.9,27.6,N/A,,Overcast,150,2012-12-04 22:55:00
4:15 PM,50.0,37.4,62,30.04,10.0,SSE,23.0,26.5,N/A,,Overcast,150,2012-12-04 23:15:00
4:35 PM,48.2,37.4,66,30.05,10.0,SSE,19.6,26.5,N/A,,Overcast,150,2012-12-04 23:35:00
4:55 PM,48.2,39.2,71,30.05,10.0,SE,18.4,26.5,N/A,,Overcast,140,2012-12-04 23:55:00
5:15 PM,48.2,39.2,71,30.05,10.0,SE,20.7,25.3,N/A,,Overcast,140,2012-12-05 00:15:00
5:35 PM,48.2,39.2,71,30.04,10.0,SE,19.6,-,N/A,,Overcast,140,2012-12-05 00:35:00
5:55 PM,48.2,39.2,71,30.04,10.0,SE,17.3,-,N/A,,Overcast,140,2012-12-05 00:55:00
6:15 PM,48.2,39.2,71,30.04,10.0,SE,16.1,21.9,N/A,,Overcast,140,2012-12-05 01:15:00
6:35 PM,48.2,39.2,71,30.04,10.0,SE,18.4,24.2,N/A,,Overcast,140,2012-12-05 01:35:00
6:55 PM,48.2,39.2,71,30.03,10.0,SE,17.3,24.2,N/A,,Overcast,140,2012-12-05 01:55:00
7:15 PM,48.2,41.0,76,30.03,10.0,SE,18.4,-,N/A,,Overcast,140,2012-12-05 02:15:00
7:35 PM,48.2,41.0,76,30.03,10.0,SE,17.3,24.2,N/A,,Overcast,140,2012-12-05 02:35:00
7:55 PM,48.2,41.0,76,30.04,10.0,SE,18.4,24.2,N/A,,Overcast,140,2012-12-05 02:55:00
8:15 PM,48.2,41.0,76,30.04,10.0,SE,17.3,-,0.01,,Overcast,140,2012-12-05 03:15:00
8:35 PM,48.2,42.8,82,30.05,10.0,South,11.5,-,0.01,,Overcast,170,2012-12-05 03:35:00
8:55 PM,48.2,41.0,76,30.04,10.0,SE,13.8,-,0.02,,Overcast,140,2012-12-05 03:55:00
9:15 PM,48.2,42.8,82,30.03,10.0,SE,15.0,-,0.01,,Overcast,140,2012-12-05 04:15:00
9:35 PM,48.2,42.8,82,30.03,10.0,SE,15.0,-,0.01,,Overcast,140,2012-12-05 04:35:00
10:15 PM,48.2,42.8,82,30.02,10.0,SE,17.3,-,N/A,,Overcast,140,2012-12-05 05:15:00
10:35 PM,48.2,42.8,82,30.02,10.0,SE,17.3,20.7,N/A,,Overcast,140,2012-12-05 05:35:00
11:15 PM,48.2,42.8,82,30.02,10.0,SE,10.4,-,N/A,,Overcast,140,2012-12-05 06:15:00
11:35 PM,50.0,42.8,76,30.01,10.0,SE,11.5,-,N/A,,Overcast,140,2012-12-05 06:35:00
11:55 PM,50.0,42.8,76,30.01,10.0,SE,12.7,-,N/A,,Overcast,140,2012-12-05 06:55:00